Regional Weather Roundup
Issued by NWS

Home | Current Version | Previous Version | Graphics & Text | Print | Product List | Glossary On
Versions: 1 2 3 4 5 6 7 8 9 10 11 12 13 14 15 16 17 18 19 20 21 22 23 24 25 26 27 28 29 30 31 32 33 34 35 36 37 38 39 40 41 42 43 44 45 46 47 48 49 50
000
ASUS43 KIND 221509
RWRIN

WEATHER ROUNDUP FOR INDIANA
NATIONAL WEATHER SERVICE INDIANAPOLIS IN
1100 AM EDT FRI AUG 22 2014

NOTE: "FAIR" INDICATES FEW OR NO CLOUDS BELOW 12,000 FEET WITH NO
SIGNIFICANT WEATHER AND/OR OBSTRUCTIONS TO VISIBILITY.

* - STATION DOES NOT REPORT WEATHER SUCH AS PRECIPITATION OR FOG.

+ - STATION NOT QUALITY CONTROLLED BY THE NATIONAL WEATHER SERVICE.
    USE DATA WITH CAUTION...ESPECIALLY DEWPOINT AND RELATIVE
    HUMIDITY OBSERVATIONS.

INZ001>003-010>013-019-020-221600-
NORTHWEST INDIANA

CITY           SKY/WX    TMP DP  RH WIND       PRES   REMARKS
GARY /AIRPORT/ CLOUDY    77  73  88 S5        29.96S
KNOX *+        PTSUNNY   77  71  82 SW3       29.96F
LA PORTE +     PTSUNNY   75  74  98 SW5       29.98S
MICHIGAN CITY+ CLOUDY    77  73  88 SW3       29.97S
MONTICELLO +   CLOUDY    74  73  94 S3        29.97S
RENSSELAER +   CLOUDY    73  73 100 S8        29.98R
VALPARAISO     CLOUDY    77  72  84 SW6       29.96F

$$

LMZ046-743>745-221600-
SOUTHERN LAKE MICHIGAN

STATION/POSITION TIME  TEMP WIND        PRES
                       AIR  DIR/SP/G
                 (UTC) (F)  (DEG/KT/KT) (MB)
MICHIGAN CITY    1500   75  180/ 10/ 12   N/A

$$

INZ004-005-014>016-021>024-221600-
NORTH CENTRAL INDIANA

CITY           SKY/WX    TMP DP  RH WIND       PRES   REMARKS
GOSHEN         PTSUNNY   78  71  79 SW8       29.98F
LOGANSPORT +   CLOUDY    77  70  78 SW3       29.98S
PERU/GRISSOM   PTSUNNY   75  75 100 VRB5      29.99R
ROCHESTER +    CLOUDY    77  73  88 CALM      29.98S
SOUTH BEND     PTSUNNY   77  70  79 SW7       29.98S

$$

INZ006>009-017-018-025>027-221600-
NORTHEAST INDIANA

CITY           SKY/WX    TMP DP  RH WIND       PRES   REMARKS
ANGOLA *+      CLOUDY    75  68  78 CALM      29.99F
AUBURN +       MOSUNNY   77  70  78 CALM      29.99S
FORT WAYNE     PTSUNNY   77  71  82 SW5       29.99S
HUNTINGTON +   PTSUNNY   73  71  92 SW5       29.98F

$$

INZ028-029-035-036-043>045-051>053-221600-
WEST CENTRAL INDIANA

CITY           SKY/WX    TMP DP  RH WIND       PRES   REMARKS
GREENCASTLE +  CLOUDY    73  72  94 CALM      30.02F
LAFAYETTE      CLOUDY    73  72  96 S3        29.98S
TERRE HAUTE    CLOUDY    79  73  82 CALM      30.02R

$$

INZ030>032-037>040-046>048-054>057-064-065-221600-
CENTRAL INDIANA

CITY           SKY/WX    TMP DP  RH WIND       PRES   REMARKS
ANDERSON       PTSUNNY   72  72 100 S6        30.02S
CP ATTERBURY + CLOUDY    77  72  83 SW3       30.02S
COLUMBUS       MOSUNNY   75  73  94 CALM      30.02S
FRANKFORT +    CLOUDY   N/A N/A N/A S6        30.01S
INDIANAPOLIS   CLOUDY    74  71  91 S3        30.01S
-EAGLE CREEK   LGT RAIN  73  70  90 SE3       30.01S
KOKOMO *+      CLOUDY    73  72  94 S10       29.98R
MARION +       CLOUDY    71  70  96 S6        30.00R
MT COMFORT *+  CLOUDY    72 N/A N/A CALM      30.03R
SHELBYVILLE    CLOUDY    76 N/A N/A SE3       30.00F HAZE
ZIONSVILLE +   LGT RAIN  73  69  89 S5        30.03R

$$

INZ033-034-041-042-049-050-058-059-221600-
EAST CENTRAL INDIANA

CITY           SKY/WX    TMP DP  RH WIND       PRES   REMARKS
MUNCIE         LGT RAIN  72  69  90 SW5       29.99F

$$

INZ060-061-067>069-081>083-085>088-221600-
SOUTHWEST INDIANA

CITY           SKY/WX    TMP DP  RH WIND       PRES   REMARKS
EVANSVILLE     MOSUNNY   84  74  71 W13       30.05R
WASHINGTON +   PTSUNNY   81  74  81 W5        30.03R

$$

INZ062-063-066-070>080-084-089>092-221600-
SOUTH CENTRAL AND SOUTHEAST INDIANA

CITY           SKY/WX    TMP DP  RH WIND       PRES   REMARKS
BLOOMINGTON    CLOUDY    79  73  82 W5        30.03R

$$




USA.gov is the U.S. government's official web portal to all federal, state and local government web resources and services.